Location: St. Louis
(38.6270°N, 90.1994°W)
Time: 04:57:06
(UTC-06:00)

Vanguard 2 - Pass Details

Date: 03 December 2021
Orbit: 553 x 2936 km, 32.9° (Epoch: 19 January)

Event Time Altitude Azimuth Distance (km) Brightness Sun altitude
Rises 18:00:12 0° 272° (W) 3,934 12.6 -15.4°
Reaches altitude 10° 18:02:43 10° 263° (W) 3,238 12.0 -15.9°
Maximum altitude 18:10:22 38° 199° (SSW) 2,431 10.3 -17.3°
Drops below altitude 10° 18:22:14 10° 138° (SE) 5,013 11.4 -19.6°
Sets 18:27:16 0° 132° (SE) 6,333 11.9 -20.5°
